Vertical_Velocity
-9 -0 2 1 0 -0 -1 1 -1 0 0 1 0 4 -2 1 2 4 -0 2 -3 8 0 -1 -1 -0 -1 -2 -0 -2 -3 -2 -2 -5 1 -0 -0 1 2 1 -1 2 -2
-4 -2 1 6 -4 4 2 -0 -2 1 3 4 4 6 1 -0 6 2 1 -0 -0 0 0 -0 -1 -2 -2 -0 0 -3 -3 -4 -3 -4 -3 -5 -3 1 -2 -1 0 -1 -2
-9 -3 -1 -2 3 -3 1 1 -3 -1 0 4 1 3 7 6 0 1 -0 -1 5 -1 1 1 -2 0 -1 -2 -4 -3 -1 -3 -4 -3 -3 -2 -3 -8 -5 -5 -3 -3 -4
-7 -4 1 -1 -5 0 1 4 -1 -0 2 3 4 7 -3 -5 -1 4 -1 -4 1 1 1 -1 1 -2 -2 -2 -3 -2 -2 -2 -2 -2 -2 -0 1 -2 -9 -5 -2 1 1
-5 -6 -5 -2 1 0 1 4 1 -0 1 2 4 1 2 7 6 6 1 2 1 3 1 1 -2 -1 -2 -2 -2 -0 -1 -2 -2 -0 -3 -3 -3 -0 -0 -11 -15 -4 -7
-3 -1 4 4 3 1 2 2 1 1 3 3 1 4 5 -1 -2 0 4 -0 2 2 -1 -2 -3 -2 -1 -2 -1 -1 -3 -1 0 -1 -1 -0 0 -1 4 0 -3 -4 -12
2 1 -0 -1 -1 -3 -1 3 1 -1 3 2 2 4 6 7 3 3 1 1 1 0 -2 -2 -3 -0 -1 -1 -2 -3 -1 -1 -1 -1 1 1 0 -1 -0 1 -1 -4 -7
4 1 -2 2 0 -1 -1 2 -1 1 0 2 1 5 7 4 2 2 1 0 0 -2 -1 -2 -1 -1 -1 -1 -2 -0 -1 -1 -2 0 -1 -2 1 -1 1 2 2 -15 -4
-3 -1 2 4 -2 1 -1 3 -2 3 1 2 3 1 2 2 2 0 1 -0 -1 -1 -2 -1 -2 -1 -0 -1 -2 -1 -1 -0 1 0 -0 -1 -0 -1 1 1 2 6 -7
4 2 4 5 7 2 1 5 4 3 -0 2 5 1 2 3 1 1 -1 -1 -1 -1 -1 -1 -1 -1 -3 -3 -1 -0 -1 -0 2 0 -2 0 3 1 1 1 0 1 2
-1 0 1 7 5 8 3 3 3 1 0 4 3 1 1 1 -0 -1 -0 -1 -1 -1 -2 -2 -1 -2 -0 -1 -1 0 0 1 -1 1 1 0 1 -1 0 -1 -0 1 3
2 2 3 3 5 -0 5 3 2 1 2 4 2 2 1 -1 -1 0 -0 -1 -1 -1 -2 -1 -1 -1 -1 -0 -0 -1 -1 -2 -2 -2 -2 -2 -1 -1 -0 1 -0 -1 4
2 0 5 3 2 1 5 2 3 1 1 3 1 0 -1 0 0 -1 -1 0 -1 -2 -1 -3 -1 -0 0 1 -1 -2 -2 -2 -0 1 0 -1 -0 -1 -1 -0 -1 -0 -0
2 1 3 3 1 3 4 1 1 4 0 3 -0 -1 0 0 -1 -1 0 -0 -1 -1 -2 -0 -1 -0 -0 -2 -0 -1 -2 -0 1 -1 -1 -1 1 0 0 2 3 1 -2
2 3 -1 -1 1 3 2 2 3 2 2 0 -0 -1 -1 -1 1 1 -0 -0 -2 -2 -1 -1 0 -3 -3 -1 -3 -3 -2 -1 -2 -1 -1 1 1 3 2 5 -1 -0 -4
2 2 1 0 2 2 -0 1 2 2 1 -0 -1 -1 1 1 1 -0 -0 -1 -2 -1 -0 -1 -4 -2 -1 -2 -1 2 -0 -1 -0 -3 -1 -1 -2 -5 -2 -6 -0 4 18
-2 -2 -2 -1 -1 -1 -1 -1 -0 -0 -0 0 0 1 0 0 -0 0 -1 -1 -1 -1 -3 -3 -2 0 -2 -2 0 0 -1 -2 -2 -1 1 -1 -2 0 -4 -3 -3 9 4
-3 -2 -2 -0 1 -0 -0 -1 1 1 1 1 1 0 0 0 0 -0 -1 -1 -2 -3 -2 0 -1 -4 0 -1 0 0 -1 -1 0 3 -1 -4 -3 -0 -0 6 10 -1 -3
1 3 4 1 -2 -2 0 1 -1 1 2 0 0 -0 -0 0 -0 -1 -1 -2 -2 -1 0 -3 -4 -3 1 -0 -2 -2 -1 -0 -1 -3 -2 -5 -3 -6 12 8 -0 -2 -8
3 -4 -1 -1 2 -0 1 0 1 0 -0 0 1 0 1 0 -0 -2 -1 -1 -1 -2 -5 -1 0 3 -2 -1 -4 -2 0 -1 -0 1 1 -2 -2 1 4 5 3 -8 -6
-2 -1 4 1 -1 -1 0 0 -0 1 2 1 1 2 1 -0 -1 -0 -0 -2 -2 -1 -1 1 2 -4 -2 -3 -1 1 1 -1 5 -1 -2 -2 -3 7 -3 1 1 0 14
-2 3 -2 1 1 1 1 2 3 2 2 2 2 1 1 1 1 -1 -2 -2 -1 -1 -0 -4 -3 1 -0 3 1 -0 -0 1 -2 0 -1 -0 5 -3 -1 -3 -0 -1 -2
-1 1 1 -1 3 5 5 -1 -0 1 1 1 -1 -1 -2 -1 -1 -2 0 -0 -0 -2 -3 -4 -5 -5 -1 -2 -3 -4 -5 -3 3 -1 1 -3 -1 -0 -1 -3 0 0 -3
1 1 1 2 -2 2 2 7 1 1 1 -0 -0 0 -1 -2 -2 -1 -1 -0 -2 -2 -2 -3 -1 -2 -5 -4 -4 -3 -5 -0 -2 -2 -5 1 3 3 1 1 -1 -2 -1
1 3 2 1 0 2 2 2 1 0 -1 0 -1 -1 -1 -1 -1 -1 -2 -2 0 -2 -5 -1 -1 -2 -4 -3 3 0 4 4 1 -2 -2 -3 -3 -5 -4 -4 -1 1 -1
1 1 2 2 -0 1 0 -0 0 -0 0 -0 -0 0 0 0 -2 -2 2 2 -2 1 2 1 3 -1 4 2 -0 -0 2 -2 1 -6 -2 -4 -2 -2 -2 -3 -5 2 1
Height
1445 1447 1449 1451 1453 1453 1455 1457 1461 1463 1465 1467 1471 1476 1480 1485 1489 1492 1496 1498 1499 1501 1502 1502 1502 1503 1502 1501 1498 1495 1494 1491 1488 1484 1484 1482 1480 1480 1479 1478 1477 1476 1475
1437 1440 1443 1444 1446 1448 1449 1452 1456 1458 1460 1462 1467 1472 1476 1482 1485 1488 1493 1494 1497 1499 1500 1500 1501 1501 1499 1497 1494 1492 1491 1489 1486 1483 1479 1477 1477 1476 1477 1475 1475 1472 1470
1430 1433 1437 1440 1441 1443 1445 1447 1450 1454 1456 1459 1464 1469 1473 1478 1482 1486 1489 1492 1494 1497 1498 1498 1498 1497 1496 1494 1492 1490 1489 1488 1486 1484 1484 1480 1477 1471 1467 1467 1466 1465 1461
1421 1425 1430 1434 1438 1439 1442 1444 1446 1450 1454 1457 1461 1465 1468 1473 1478 1482 1486 1490 1493 1495 1496 1496 1495 1495 1493 1491 1490 1489 1487 1485 1485 1483 1482 1480 1478 1473 1462 1459 1458 1455 1452
1409 1413 1420 1426 1432 1435 1438 1441 1443 1447 1451 1455 1459 1463 1467 1472 1475 1479 1484 1488 1491 1493 1493 1493 1493 1492 1490 1489 1488 1487 1485 1484 1483 1480 1478 1476 1474 1472 1467 1453 1448 1446 1445
1399 1403 1411 1417 1423 1429 1434 1437 1439 1444 1449 1453 1458 1464 1467 1471 1474 1479 1483 1486 1489 1490 1491 1491 1491 1490 1488 1487 1486 1485 1484 1482 1480 1478 1475 1472 1470 1467 1464 1455 1446 1439 1434
1389 1394 1400 1407 1414 1422 1429 1433 1436 1441 1446 1452 1458 1463 1467 1470 1474 1478 1482 1485 1487 1488 1489 1489 1489 1488 1486 1485 1484 1483 1481 1479 1477 1474 1472 1469 1467 1465 1461 1455 1446 1434 1426
1383 1385 1392 1400 1406 1415 1424 1429 1434 1439 1445 1451 1457 1462 1467 1471 1475 1478 1481 1484 1485 1486 1487 1487 1487 1486 1485 1483 1482 1481 1478 1476 1474 1471 1468 1466 1463 1461 1458 1453 1445 1429 1424
1379 1383 1388 1394 1401 1410 1419 1425 1431 1438 1444 1450 1455 1461 1467 1471 1474 1477 1481 1483 1484 1484 1485 1485 1485 1484 1482 1481 1480 1478 1475 1473 1470 1467 1464 1460 1458 1456 1453 1449 1445 1440 1420
1373 1379 1384 1391 1398 1407 1416 1423 1431 1437 1443 1449 1454 1460 1465 1470 1473 1477 1479 1481 1482 1483 1483 1483 1482 1481 1480 1478 1477 1474 1472 1469 1466 1462 1459 1456 1453 1450 1447 1443 1439 1436 1429
1368 1374 1381 1388 1397 1405 1415 1421 1430 1436 1443 1450 1454 1459 1465 1469 1473 1476 1478 1479 1480 1480 1480 1480 1480 1479 1477 1475 1473 1470 1468 1464 1461 1458 1454 1451 1447 1443 1439 1436 1432 1427 1422
1364 1371 1378 1386 1398 1407 1415 1420 1429 1436 1444 1450 1454 1460 1464 1469 1473 1475 1476 1477 1478 1478 1478 1478 1477 1476 1474 1471 1469 1466 1463 1460 1455 1452 1448 1444 1440 1436 1432 1428 1422 1417 1412
1363 1372 1380 1389 1396 1407 1414 1420 1429 1437 1444 1450 1454 1459 1465 1469 1472 1474 1475 1476 1476 1476 1476 1475 1474 1473 1471 1468 1465 1462 1458 1455 1450 1446 1442 1437 1433 1428 1424 1420 1415 1410 1405
1362 1371 1382 1390 1400 1408 1414 1422 1430 1438 1445 1450 1455 1460 1465 1469 1471 1473 1473 1474 1474 1474 1474 1473 1471 1470 1467 1464 1461 1457 1453 1449 1445 1441 1437 1432 1427 1422 1417 1413 1409 1404 1397
1366 1374 1382 1392 1402 1409 1416 1425 1433 1439 1445 1450 1456 1461 1465 1468 1470 1471 1471 1471 1472 1472 1471 1470 1468 1466 1464 1460 1456 1452 1448 1444 1440 1436 1432 1427 1422 1418 1414 1409 1402 1397 1390
1370 1378 1386 1395 1403 1410 1418 1426 1434 1440 1446 1452 1457 1461 1464 1466 1468 1469 1469 1470 1470 1469 1469 1467 1465 1463 1460 1456 1452 1448 1443 1439 1434 1429 1425 1420 1416 1411 1407 1402 1398 1393 1386
1373 1380 1389 1397 1405 1412 1420 1428 1435 1442 1447 1452 1456 1460 1463 1465 1466 1467 1468 1468 1468 1467 1466 1464 1462 1459 1455 1451 1447 1443 1438 1433 1429 1424 1419 1414 1410 1405 1398 1392 1388 1383 1379
1376 1385 1392 1400 1407 1416 1424 1431 1437 1443 1448 1452 1455 1459 1462 1464 1465 1465 1466 1466 1466 1465 1463 1461 1457 1454 1451 1446 1442 1437 1433 1428 1424 1419 1414 1408 1402 1398 1393 1386 1380 1374 1368
1380 1386 1394 1401 1410 1418 1426 1432 1438 1443 1447 1451 1455 1458 1461 1462 1463 1464 1465 1465 1463 1462 1460 1456 1453 1449 1446 1441 1437 1432 1427 1422 1418 1413 1408 1404 1399 1393 1388 1381 1373 1365 1360
1382 1388 1396 1404 1412 1419 1427 1433 1438 1443 1447 1451 1454 1457 1459 1461 1462 1463 1463 1462 1461 1459 1456 1454 1449 1445 1441 1437 1432 1427 1422 1417 1412 1408 1404 1399 1395 1388 1383 1376 1368 1359 1353
1383 1391 1398 1405 1413 1420 1427 1433 1438 1443 1447 1451 1454 1457 1459 1461 1462 1462 1461 1460 1458 1456 1453 1450 1446 1442 1437 1432 1427 1423 1419 1414 1409 1403 1397 1392 1387 1383 1377 1371 1363 1356 1350
1385 1392 1398 1407 1414 1422 1428 1434 1439 1444 1447 1451 1454 1457 1459 1460 1460 1460 1459 1457 1455 1452 1449 1445 1442 1438 1433 1428 1423 1419 1416 1412 1406 1399 1393 1387 1383 1376 1369 1363 1358 1353 1345
1387 1394 1401 1408 1417 1424 1430 1434 1439 1444 1448 1451 1454 1456 1458 1459 1459 1458 1457 1454 1451 1448 1445 1441 1436 1432 1428 1424 1419 1414 1410 1407 1401 1395 1389 1382 1375 1369 1363 1357 1353 1346 1339
1391 1397 1404 1411 1418 1426 1432 1437 1440 1445 1448 1451 1453 1455 1457 1457 1457 1456 1454 1451 1448 1445 1441 1437 1432 1427 1422 1418 1413 1410 1406 1401 1395 1389 1382 1376 1370 1365 1359 1353 1347 1341 1335
1396 1402 1408 1414 1422 1429 1434 1438 1442 1445 1448 1451 1453 1455 1455 1455 1454 1453 1451 1449 1446 1442 1437 1433 1429 1423 1418 1414 1413 1408 1403 1397 1391 1384 1376 1370 1364 1358 1353 1348 1343 1336 1330
1400 1406 1413 1418 1424 1430 1435 1439 1443 1447 1449 1451 1453 1453 1453 1453 1452 1451 1449 1447 1443 1439 1436 1432 1427 1421 1417 1412 1408 1404 1399 1393 1385 1378 1372 1366 1361 1355 1349 1343 1337 1332 1326